Simultaneous Nadir Overpasses (SNOs) Predictions

Prediction of SNOs between GOES-16 and LANDSAT-8 Satellite Orbit:

Table of predicted SNOs for the next 14.0 days since TLE Epoch: 5/30/2025
Index Date Time (GOES-16) GOES-16 Lat,Lon LANDSAT-8 Lat,Lon Distance(km) Time Diff (sec)
1 06/01/2025 16:44:59 0.04,-102.24 -0.73, -98.73 399.08 80
2 06/02/2025 05:09:03 -0.03,-102.48 -0.33,-103.93 164.65 80
3 06/04/2025 04:54:15 -0.03,-103.54 0.53,-101.02 287.31 80
4 06/04/2025 17:18:11 0.03,-103.85 0.53,-106.18 265.66 80
5 06/06/2025 17:03:23 0.03,-104.91 -0.34,-103.27 186.60 80
6 06/07/2025 05:27:28 -0.03,-105.15 -0.70,-108.47 376.94 80
7 06/09/2025 05:12:39 -0.02,-106.21 0.13,-105.55 75.08 80
8 06/09/2025 17:36:35 0.02,-106.51 0.93,-110.71 478.00 80
9 06/11/2025 17:24:26 0.01,-107.57 0.08,-107.79 26.40 80
10 06/13/2025 17:09:37 0.00,-108.62 -0.77,-104.88 425.10 80
